[[{"header":{"parameterUnit":"m.s-1","parameterCategory":1,"la1":30.2991,"la2":30.254,"lo1":-89.0895,"lo2":-89.0444,"dy":0.0017,"dx":0.0017,"nx":28,"ny":28,"refTime":"2025-06-11T21:00:00:Z","depth":0,"parameterNumber":2,"parameterNumberName":"U-component_of_WINDS"},"data":[0,0,0,0,0,0,0,0,0,0,0,0,0,0,0,0,0,0,0,0,0,0,0,0,0,0,0,0,0,0,0,0,0,0,0,0,0,0,0,0,0,0,0,0,0,0,0,0,0,0,0,0,0,0,0,0,0,0,0.3694,0.3694,0,0.3713,0.3713,0.3713,0.3706,0.3705,0.3705,0.3704,0.3723,0.3724,0.3725,0,0,0,0,0,0,0,0,0,0,0,0,0,0.3649,0.365,0.3694,0.3694,0.3694,0.3713,0.3713,0.3713,0.3706,0.3705,0.3705,0.3704,0.3723,0.3724,0.3725,0,0,0,0,0,0,0,0,0,0,0,0,0,0.3669,0.3651,0.3694,0.3693,0.3693,0.3713,0.3713,0.3714,0.3706,0.3705,0.3705,0.3704,0.3723,0.3724,0.3725,0.3747,0,0,0.3729,0.373,0,0,0,0,0,0,0,0,0.3668,0.367,0.3693,0.3693,0.3693,0.3706,0.3704,0.3725,0.3706,0.3701,0.3704,0.3704,0.3718,0.372,0.3725,0.3748,0.3749,0.373,0.373,0.3731,0.3731,0,0,0,0,0,0,0,0.3666,0.3669,0.3701,0.3693,0.3693,0.3691,0.3693,0.3708,0.3713,0.3701,0.3701,0.3703,0.3718,0.3724,0.3725,0.3749,0.373,0.3731,0.3732,0.3732,0.379,0.379,0,0,0,0,0,0,0.3665,0.3668,0.3701,0.3702,0.3678,0.3692,0.3695,0.3703,0.3713,0.3714,0.3704,0.3703,0.3722,0.3724,0.3726,0.3751,0.3731,0.3732,0.3733,0.3789,0.379,0.3791,0,0,0,0,0,0,0.3664,0.3668,0.37,0.3685,0.3689,0.3694,0.3703,0.3703,0.3709,0.3715,0.3715,0.3709,0.3721,0.3724,0.3742,0.3752,0.3733,0.3734,0.3788,0.3789,0.379,0.3802,0,0,0,0,0,0,0.3663,0.3668,0.3676,0.3685,0.369,0.3716,0.3704,0.3704,0.3711,0.371,0.3719,0.372,0.3721,0.374,0.3743,0.3753,0.3735,0.3787,0.3789,0.379,0.3801,0.3803,0.3806,0,0,0,0,0,0.3661,0.3679,0.3677,0.3681,0.3701,0.3717,0.3719,0.372,0.3712,0.3721,0.3724,0.372,0.375,0.3741,0.3745,0.3756,0.3787,0.3788,0.379,0.38,0.3803,0.3806,0,0,0,0,0,0,0.3671,0.368,0.3678,0.3699,0.3707,0.3715,0.3726,0.3723,0.3733,0.3732,0.3731,0.3734,0.3752,0.3756,0.3746,0.3777,0.3767,0.377,0.3773,0.3777,0.3779,0.3777,0.3736,0,0,0,0,0,0.3676,0.3688,0.3696,0.3714,0.3718,0.3721,0.3728,0.3728,0.3736,0.3739,0.3744,0.3752,0.3763,0.377,0.3781,0.3802,0.3803,0.3811,0.3813,0.3815,0.3817,0.3827,0.383,0.3796,0.3796,0.3796,0,0,0.3686,0.3692,0.37,0.3716,0.3722,0.3734,0.3724,0.3738,0.3746,0.3741,0.3758,0.3762,0.377,0.3789,0.3798,0.3793,0.3827,0.3817,0.3819,0.3819,0.3829,0.3832,0.3835,0.3797,0.3797,0.3796,0,0,0.371,0.3716,0.3732,0.3738,0.3747,0.3749,0.3753,0.3761,0.3763,0.378,0.3776,0.3786,0.3806,0.3812,0.3817,0.3842,0.3838,0.3846,0.3858,0.3868,0.3871,0.3873,0.3881,0.3884,0.3848,0.3848,0.3848,0,0.3721,0.3739,0.374,0.3753,0.376,0.3756,0.377,0.3776,0.3789,0.3793,0.3788,0.3811,0.3817,0.3836,0.3842,0.3847,0.3851,0.3844,0.387,0.3873,0.3875,0.3882,0.3885,0.3849,0.3849,0.3848,0.3848,0,0.3751,0.3764,0.3775,0.3787,0.3795,0.3809,0.3811,0.3819,0.3818,0.382,0.3837,0.3843,0.3855,0.3859,0.3859,0.3879,0.3875,0.387,0.386,0.3879,0.3886,0.3889,0.385,0.3849,0.3849,0.3849,0,0,0.3782,0.3793,0.3797,0.3802,0.3812,0.3821,0.3835,0.3846,0.3852,0.3861,0.3871,0.3888,0.3883,0.3889,0.3889,0.3897,0.3915,0.3891,0.3891,0.3894,0.3936,0.394,0.3943,0.3913,0.3914,0.3914,0.3935,0,0.3805,0.383,0.383,0.3852,0.3863,0.3859,0.3871,0.3877,0.388,0.3889,0.3892,0.3903,0.3896,0.39,0.3908,0.3911,0.3924,0.391,0.3922,0.3922,0.3919,0.3947,0.395,0.397,0.3938,0.3939,0.3939,0,0.3836,0.3845,0.3868,0.3875,0.388,0.389,0.39,0.391,0.3917,0.3918,0.3925,0.3923,0.3936,0.3926,0.3943,0.3934,0.3939,0.3941,0.3942,0.3942,0.3931,0.3947,0.3976,0.3979,0.3944,0.3943,0.3943,0,0.3855,0.3873,0.3888,0.3893,0.3902,0.3909,0.3913,0.392,0.3926,0.3934,0.3938,0.3948,0.3953,0.3961,0.3961,0.3954,0.3978,0.3969,0.3979,0.3979,0.3983,0.3983,0.4013,0.3988,0.3988,0.3988,0.3988,0,0.388,0.3894,0.3897,0.3906,0.3921,0.3921,0.3936,0.394,0.3945,0.3955,0.3952,0.3961,0.3962,0.3971,0.3972,0.3985,0.3988,0.3988,0.3988,0.3988,0.3988,0.3991,0.3989,0.3989,0.3989,0.3989,0.3988,0,0.3903,0.3905,0.3922,0.3929,0.3931,0.3942,0.3947,0.3956,0.3958,0.397,0.3973,0.3976,0.3987,0.3988,0.4001,0.4001,0.4017,0.4016,0.4014,0.4014,0.4023,0.4022,0.4056,0.406,0.4033,0.4033,0.4034,0,0.3919,0.3929,0.3937,0.3943,0.3948,0.3958,0.3964,0.3965,0.3971,0.398,0.3987,0.3998,0.4006,0.4022,0.4025,0.4034,0.4033,0.4044,0.4034,0.4033,0.4032,0.4031,0.4031,0.4046,0.4046,0.4046,0.4046,0,0.3946,0.3946,0.3956,0.3965,0.3973,0.398,0.3987,0.3992,0.3994,0.4001,0.4012,0.4018,0.403,0.404,0.4049,0.4052,0.4049,0.405,0.4052,0.4052,0.405,0.405,0.4018,0.4049,0.4048,0.4048,0.4048,0.4048,0.3965,0.3973,0.398,0.399,0.3996,0.4002,0.401,0.4013,0.4022,0.4032,0.4032,0.4043,0.4049,0.4061,0.4065,0.4074,0.407,0.4074,0.4075,0.4075,0.4076,0.4049,0.4075,0.4075,0.4075,0.4075,0.4075,0,0.3991,0.3995,0.4004,0.4014,0.4022,0.4018,0.4026,0.4032,0.4042,0.4049,0.4056,0.4068,0.4077,0.4081,0.409,0.4096,0.4095,0.4098,0.4097,0.4098,0.4079,0.4076,0.4099,0.4099,0.4099,0.4099,0.4099,0.4099,0.4005,0.4019,0.402,0.4037,0.404,0.4052,0.4056,0.4062,0.4066,0.4079,0.4087,0.409,0.4094,0.4104,0.4112,0.4112,0.4115,0.4119,0.4119,0.4102,0.4099,0.4097,0.4093,0.412,0.412,0.4137,0.4137,0.4137]},{"header":{"parameterUnit":"m.s-1","parameterCategory":1,"la1":30.2991,"la2":30.254,"lo1":-89.0895,"lo2":-89.0444,"dy":0.0017,"dx":0.0017,"nx":28,"ny":28,"refTime":"2025-06-11T21:00:00:Z","depth":0,"parameterNumber":3,"parameterNumberName":"V-component_of_WINDS"},"data":[0,0,0,0,0,0,0,0,0,0,0,0,0,0,0,0,0,0,0,0,0,0,0,0,0,0,0,0,0,0,0,0,0,0,0,0,0,0,0,0,0,0,0,0,0,0,0,0,0,0,0,0,0,0,0,0,0,0,3.203,3.2031,0,3.2137,3.2138,3.2139,3.2108,3.2106,3.2103,3.2101,3.2206,3.2211,3.2216,0,0,0,0,0,0,0,0,0,0,0,0,0,3.1793,3.1797,3.203,3.2031,3.2033,3.2137,3.2138,3.214,3.2108,3.2105,3.2103,3.21,3.2205,3.221,3.2216,0,0,0,0,0,0,0,0,0,0,0,0,0,3.1897,3.1799,3.203,3.203,3.2031,3.2136,3.2138,3.214,3.2109,3.2105,3.2102,3.2099,3.2203,3.221,3.2217,3.2328,0,0,3.2239,3.2242,0,0,0,0,0,0,0,0,3.1891,3.1906,3.2028,3.203,3.2031,3.2106,3.2093,3.2203,3.2109,3.2079,3.2101,3.2097,3.2175,3.2184,3.2212,3.2333,3.2337,3.224,3.2244,3.2247,3.2249,0,0,0,0,0,0,0,3.1884,3.1901,3.2072,3.203,3.2032,3.2022,3.2033,3.2114,3.2144,3.2081,3.2079,3.2093,3.2175,3.2205,3.2214,3.2339,3.224,3.2246,3.225,3.2253,3.2553,3.2556,0,0,0,0,0,0,3.1877,3.1895,3.2069,3.2075,3.1952,3.2029,3.2042,3.2085,3.2143,3.2149,3.2095,3.2091,3.2194,3.2205,3.2217,3.2349,3.2247,3.2254,3.2258,3.2549,3.2554,3.2558,0,0,0,0,0,0,3.1872,3.1892,3.2064,3.1985,3.2006,3.2037,3.2086,3.2089,3.2118,3.2154,3.2158,3.212,3.2192,3.2207,3.23,3.2352,3.2257,3.2264,3.2545,3.2551,3.2556,3.2615,0,0,0,0,0,0,3.1865,3.1891,3.1935,3.1986,3.201,3.2148,3.2089,3.2093,3.2131,3.2126,3.2178,3.2184,3.219,3.229,3.2307,3.2361,3.227,3.254,3.2548,3.2554,3.2609,3.2622,3.2633,0,0,0,0,0,3.1857,3.1947,3.1937,3.1959,3.2067,3.2151,3.2164,3.2171,3.2136,3.2179,3.2201,3.2182,3.2344,3.2299,3.2319,3.2376,3.2537,3.2546,3.2553,3.2603,3.2619,3.2633,0,0,0,0,0,0,3.19,3.1954,3.1944,3.2054,3.2098,3.2145,3.2201,3.2189,3.2243,3.2236,3.2241,3.2252,3.2347,3.2371,3.232,3.2484,3.2435,3.2447,3.2466,3.2482,3.2494,3.2486,3.2276,0,0,0,0,0,3.1923,3.1989,3.2031,3.2124,3.2147,3.217,3.2207,3.2208,3.2254,3.2272,3.2301,3.2344,3.2405,3.2444,3.2502,3.2612,3.2621,3.266,3.2672,3.2682,3.2693,3.275,3.2767,3.2584,3.2584,3.2584,0,0,3.197,3.2007,3.2049,3.2134,3.2168,3.2234,3.2186,3.2258,3.2306,3.2282,3.2372,3.2395,3.2443,3.2544,3.259,3.2567,3.2745,3.2692,3.27,3.2705,3.276,3.2777,3.2792,3.259,3.2589,3.2588,0,0,3.2089,3.2125,3.2206,3.2241,3.2294,3.2308,3.2327,3.2376,3.2391,3.2481,3.2464,3.252,3.2625,3.2659,3.269,3.282,3.2803,3.2839,3.2903,3.2958,3.2973,3.2985,3.303,3.3046,3.2849,3.2849,3.2849,0,3.2141,3.2241,3.2248,3.2322,3.2358,3.234,3.242,3.2454,3.2522,3.2547,3.252,3.2649,3.268,3.2788,3.282,3.2846,3.2866,3.2833,3.2971,3.2983,3.2995,3.3038,3.3055,3.2853,3.2853,3.2852,3.2852,0,3.2301,3.237,3.2429,3.2496,3.2539,3.2616,3.2632,3.2674,3.2671,3.2688,3.2778,3.2815,3.2879,3.2904,3.2902,3.3011,3.2995,3.2969,3.292,3.3016,3.3056,3.3073,3.2858,3.2857,3.2856,3.2855,0,0,3.2452,3.2521,3.2542,3.2572,3.2628,3.268,3.2754,3.2818,3.2853,3.29,3.2961,3.3049,3.3025,3.306,3.3061,3.311,3.3208,3.3078,3.3079,3.31,3.3328,3.3347,3.3366,3.3197,3.3201,3.3203,3.3324,0,3.2575,3.2708,3.2715,3.2834,3.2896,3.2879,3.2943,3.2983,3.3,3.3054,3.3071,3.3133,3.3097,3.3118,3.3166,3.3186,3.3254,3.3178,3.3252,3.3255,3.324,3.3387,3.3408,3.352,3.334,3.3342,3.3344,0,3.2737,3.279,3.2916,3.2961,3.2987,3.3045,3.3102,3.3155,3.3199,3.3207,3.3246,3.3239,3.3312,3.326,3.336,3.3308,3.3338,3.3352,3.3357,3.3363,3.3305,3.3397,3.3556,3.3573,3.3369,3.3367,3.3365,0,3.2833,3.2935,3.3023,3.3049,3.3104,3.3145,3.3169,3.321,3.3247,3.3296,3.3319,3.3376,3.3407,3.345,3.3458,3.342,3.3557,3.3506,3.3564,3.3564,3.3594,3.3592,3.3759,3.3615,3.3615,3.3614,3.3614,0,3.297,3.3047,3.3067,3.3121,3.3206,3.3212,3.3295,3.3316,3.3352,3.3408,3.3396,3.3448,3.3456,3.3509,3.3515,3.3596,3.361,3.3617,3.3618,3.3618,3.3617,3.3638,3.363,3.3619,3.3618,3.3617,3.3616,0,3.3091,3.3108,3.3203,3.3247,3.3259,3.332,3.3356,3.3407,3.3421,3.3492,3.3509,3.3532,3.3594,3.3606,3.3679,3.3683,3.3778,3.3771,3.3764,3.3763,3.382,3.3814,3.4006,3.4031,3.3871,3.3873,3.3874,0,3.3177,3.3236,3.3286,3.3324,3.335,3.3411,3.3448,3.3455,3.3494,3.3547,3.359,3.3651,3.37,3.38,3.3822,3.3877,3.387,3.3934,3.3879,3.3876,3.387,3.3866,3.3871,3.3944,3.3946,3.3948,3.3949,0,3.3327,3.3332,3.3388,3.3445,3.3491,3.3536,3.3579,3.361,3.3622,3.3666,3.373,3.3768,3.3842,3.3902,3.3957,3.398,3.3966,3.3966,3.3982,3.3983,3.3975,3.3979,3.3792,3.3961,3.396,3.3959,3.3959,3.3958,3.3433,3.3484,3.3527,3.3588,3.3621,3.3661,3.371,3.3731,3.3785,3.3847,3.3847,3.3916,3.3955,3.4027,3.4053,3.4106,3.4086,3.4109,3.4115,3.4121,3.4126,3.3967,3.4116,3.4116,3.4115,3.4115,3.4115,0,3.3581,3.3608,3.3664,3.3725,3.3772,3.3756,3.3802,3.3842,3.3904,3.3942,3.3991,3.4063,3.412,3.4146,3.4201,3.4239,3.4233,3.4253,3.425,3.4255,3.4141,3.4121,3.4256,3.4256,3.4256,3.4256,3.4256,3.4256,3.3664,3.3749,3.3758,3.3858,3.3883,3.3952,3.3979,3.4015,3.4045,3.4127,3.4175,3.4191,3.4224,3.4282,3.4333,3.4338,3.4359,3.4381,3.4384,3.4277,3.4263,3.4249,3.4231,3.4386,3.4386,3.4493,3.4494,3.4495]}]]